Back to catalog

STARLINK-11431

AliveCommunicationsVLEO
NORAD 62890·PAYLOAD·🇺🇸 United States

Launched Feb 4, 2025 from Cape Canaveral Space Force Station

Loading…

Next Passes (next 24 hours)

TLE

FreshSource: CelesTrak SupGP

Epoch: Sep 14, 2026, 20:59 UTC

1 62890C 25024M   26257.87479167 -.00040102  00000+0 -31166-3 0  2574
2 62890  43.0000 121.5500 0001565 272.5696 157.9731 15.70843755    11

Track STARLINK-11431 in real time with AllMySat

Download on the App Store